Regional Weather Roundup
Issued by NWS Little Rock, AR

Home | Current Version | Previous Version | Graphics & Text | Print | Product List | Glossary On
Versions: 1 2 3 4 5 6 7 8 9 10 11 12 13 14 15 16 17 18 19 20 21 22 23 24 25 26 27 28 29 30 31 32 33 34 35 36 37 38 39 40 41 42 43 44 45 46 47 48 49
000
ASUS44 KLZK 260705
RWRLZK

WEATHER ROUNDUP FOR ARKANSAS
NATIONAL WEATHER SERVICE LITTLE ROCK AR
100 AM CST FRI DEC 26 2014

NOTE: "FAIR" INDICATES FEW OR NO CLOUDS BELOW 12,000 FEET WITH NO
SIGNIFICANT WEATHER AND/OR OBSTRUCTIONS TO VISIBILITY.

ARZ001-003-010-029-260800-
NORTHWEST ARKANSAS

CITY           SKY/WX    TMP DP  RH WIND       PRES   REMARKS
FAYETTEVILLE   CLOUDY    46  34  62 S15       29.95S
FORT SMITH     MOCLDY    45  33  63 CALM      29.99S
HARRISON       MOCLDY    44  34  67 SE9       29.98S
BENTONVILLE    CLOUDY    45  30  57 S7        29.95S
ROGERS         MOCLDY    45  33  63 S12       29.95R
SILOAM SPGS    MOCLDY    46  30  53 S9        29.95S
HIGHFILL       MOCLDY    46  33  60 S12       29.93S
$$

ARZ004-005-016-260800-
NORTH CENTRAL ARKANSAS

CITY           SKY/WX    TMP DP  RH WIND       PRES   REMARKS
BATESVILLE     CLEAR     46  36  66 S9        30.08R
FLIPPIN        MOCLDY    46  32  57 S8        30.01R
MTN HOME       PTCLDY    45  34  65 S13       30.01R
$$

ARZ040-041-260800-
WEST CENTRAL ARKANSAS

CITY           SKY/WX    TMP DP  RH WIND       PRES   REMARKS
MENA           MOCLDY    50  43  76 S8        30.03S
MOUNT IDA      CLOUDY    50  41  71 MISG      30.03R
$$

ARZ009-017-025-026-028-260800-
NORTHEAST ARKANSAS

CITY           SKY/WX    TMP DP  RH WIND       PRES   REMARKS
CORNING        FAIR      43  36  75 S13       30.11R
JONESBORO      CLEAR     39  36  89 S7        30.12R
NEWPORT        CLEAR     40  36  86 S10       30.12R
WALNUT RIDGE   CLEAR     41  34  75 S9        30.10R
BLYTHEVILLE    CLEAR     41  35  79 S10       30.14S
$$

ARZ022-023-033-042-044-260800-
CENTRAL ARKANSAS

CITY           SKY/WX    TMP DP  RH WIND       PRES   REMARKS
LITTLE ROCK    CLEAR     45  35  68 S9        30.10S
N LITTLE ROCK    N/A     45  39  78 S8        30.10S
JACKSONVILLE   CLEAR     42  35  78 SE3       30.10S
SEARCY         CLEAR     44  36  73 S8        30.12R
HOT SPRINGS    CLEAR     46  38  73 S6        30.08R
RUSSELLVILLE   PTCLDY    42  35  76 CALM      30.04S
CLINTON        FAIR      37  36  93 CALM      30.09S
$$

ARZ036-260800-
EAST ARKANSAS

CITY           SKY/WX    TMP DP  RH WIND       PRES   REMARKS
WEST MEMPHIS   PTCLDY    40  36  86 S9        30.14R
$$

ARZ050-053-066-070-073-260800-
SOUTHWEST ARKANSAS

CITY           SKY/WX    TMP DP  RH WIND       PRES   REMARKS
ARKADELPHIA    FAIR      40  39  96 S7        30.11R
CAMDEN         MOCLDY    41  36  81 MISG      30.12S
TEXARKANA      PTCLDY    45  41  86 SE6       30.07S
EL DORADO      MOCLDY    44  38  79 SE3       30.11S
DE QUEEN       CLEAR     47  40  76 SE3       30.05R
$$

ARZ056-057-069-260800-
SOUTHEAST ARKANSAS

CITY           SKY/WX    TMP DP  RH WIND       PRES   REMARKS
PINE BLUFF     CLEAR     44  36  73 S10       30.12S
STUTTGART      CLEAR     43  34  70 SE9       30.12F
MONTICELLO     MOCLDY    38  34  85 SE5       30.13F

$$





USA.gov is the U.S. government's official web portal to all federal, state and local government web resources and services.